• în Republica Moldova
  • Lista ţărilor
  • Pe 7 zile
  • Temperatura apei
  • Hartă satelitară
  • Meteo pe hartă
  • Widget-uri
  • user-avatar
    Intrare

    Meteo pe oră la Saurimo

    Astăzi, 23 Mai, Marţi

    Timp Temperatura Precipitaţii Vânt Presiune Umiditate
    00:00 +21°C° 0 mm 2 m/s 671 mmHg 65%
    01:00 +21°C° 0 mm 2 m/s 670 mmHg 67%
    02:00 +20°C° 0 mm 2 m/s 670 mmHg 68%
    03:00 +20°C° 0 mm 2 m/s 670 mmHg 70%
    04:00 +20°C° 0 mm 2 m/s 670 mmHg 71%
    05:00 +20°C° 0 mm 2 m/s 671 mmHg 71%
    06:00 +20°C° 0 mm 3 m/s 671 mmHg 70%
    07:00 +21°C° 0 mm 3 m/s 672 mmHg 69%
    08:00 +24°C° 0 mm 3 m/s 672 mmHg 62%
    09:00 +26°C° 0 mm 3 m/s 673 mmHg 55%
    10:00 +29°C° 0 mm 4 m/s 673 mmHg 49%
    11:00 +29°C° 0,1 mm 3 m/s 673 mmHg 45%
    12:00 +30°C° 0,1 mm 3 m/s 673 mmHg 41%
    13:00 +31°C° 0,1 mm 2 m/s 672 mmHg 38%
    14:00 +31°C° 0 mm 2 m/s 672 mmHg 39%
    15:00 +31°C° 0 mm 2 m/s 671 mmHg 41%
    16:00 +30°C° 0 mm 2 m/s 671 mmHg 42%
    17:00 +28°C° 0 mm 2 m/s 671 mmHg 49%
    18:00 +25°C° 0 mm 1 m/s 671 mmHg 56%
    19:00 +23°C° 0 mm 1 m/s 670 mmHg 63%
    20:00 +23°C° 0 mm 1 m/s 671 mmHg 65%
    21:00 +22°C° 0 mm 1 m/s 671 mmHg 66%
    22:00 +22°C° 0 mm 1 m/s 671 mmHg 68%
    23:00 +21°C° 0 mm 1 m/s 671 mmHg 70%

    Mâine, 24 Mai, Miercuri

    Timp Temperatura Precipitaţii Vânt Presiune Umiditate
    00:00 +20°C° 0 mm 2 m/s 671 mmHg 72%
    01:00 +20°C° 0 mm 2 m/s 671 mmHg 73%
    02:00 +19°C° 0 mm 2 m/s 671 mmHg 75%
    03:00 +19°C° 0 mm 2 m/s 671 mmHg 77%
    04:00 +19°C° 0 mm 2 m/s 670 mmHg 79%
    05:00 +19°C° 0 mm 3 m/s 671 mmHg 77%
    06:00 +20°C° 0 mm 3 m/s 672 mmHg 76%
    07:00 +20°C° 0 mm 3 m/s 672 mmHg 74%
    08:00 +22°C° 0 mm 3 m/s 673 mmHg 65%
    09:00 +26°C° 0 mm 3 m/s 673 mmHg 57%
    10:00 +28°C° 0 mm 3 m/s 674 mmHg 48%
    11:00 +29°C° 0 mm 3 m/s 673 mmHg 44%
    12:00 +31°C° 0 mm 3 m/s 673 mmHg 40%
    13:00 +32°C° 0 mm 2 m/s 672 mmHg 36%
    14:00 +31°C° 0 mm 2 m/s 672 mmHg 37%
    15:00 +31°C° 0 mm 2 m/s 671 mmHg 38%
    16:00 +31°C° 0 mm 1 m/s 671 mmHg 40%
    17:00 +28°C° 0 mm 1 m/s 671 mmHg 47%
    18:00 +26°C° 0 mm 1 m/s 670 mmHg 53%
    19:00 +23°C° 0 mm 1 m/s 670 mmHg 60%
    20:00 +22°C° 0 mm 1 m/s 670 mmHg 61%
    21:00 +22°C° 0 mm 1 m/s 671 mmHg 62%
    22:00 +21°C° 0 mm 1 m/s 671 mmHg 63%
    23:00 +21°C° 0 mm 1 m/s 671 mmHg 64%

    Poimâine, 25 Mai, Joi

    Timp Temperatura Precipitaţii Vânt Presiune Umiditate
    00:00 +21°C° 0 mm 1 m/s 670 mmHg 64%
    01:00 +21°C° 0 mm 1 m/s 670 mmHg 65%
    02:00 +19°C° 0 mm 2 m/s 670 mmHg 66%
    03:00 +19°C° 0 mm 2 m/s 670 mmHg 67%
    04:00 +19°C° 0 mm 2 m/s 670 mmHg 69%
    05:00 +19°C° 0 mm 2 m/s 670 mmHg 68%
    06:00 +19°C° 0 mm 2 m/s 671 mmHg 68%
    07:00 +20°C° 0 mm 2 m/s 672 mmHg 68%
    08:00 +23°C° 0 mm 2 m/s 672 mmHg 60%
    09:00 +26°C° 0 mm 3 m/s 673 mmHg 52%
    10:00 +29°C° 0 mm 3 m/s 673 mmHg 43%
    11:00 +30°C° 0 mm 3 m/s 673 mmHg 40%
    12:00 +31°C° 0 mm 2 m/s 672 mmHg 37%
    13:00 +34°C° 0 mm 2 m/s 672 mmHg 34%
    14:00 +32°C° 0 mm 2 m/s 671 mmHg 36%
    15:00 +32°C° 0 mm 2 m/s 671 mmHg 38%
    16:00 +31°C° 0 mm 1 m/s 670 mmHg 39%
    17:00 +29°C° 0 mm 1 m/s 670 mmHg 47%
    18:00 +26°C° 0 mm 1 m/s 670 mmHg 54%
    19:00 +23°C° 0 mm 1 m/s 670 mmHg 61%
    20:00 +23°C° 0 mm 1 m/s 670 mmHg 62%
    21:00 +22°C° 0 mm 1 m/s 670 mmHg 64%
    22:00 +22°C° 0 mm 1 m/s 670 mmHg 65%
    23:00 +22°C° 0 mm 1 m/s 670 mmHg 64%

    26 Mai, Vineri

    Timp Temperatura Precipitaţii Vânt Presiune Umiditate
    00:00 +22°C° 0 mm 1 m/s 670 mmHg 64%
    01:00 +22°C° 0 mm 1 m/s 670 mmHg 63%
    02:00 +22°C° 0 mm 1 m/s 670 mmHg 63%
    03:00 +22°C° 0 mm 1 m/s 670 mmHg 63%
    04:00 +22°C° 0 mm 1 m/s 670 mmHg 64%
    05:00 +22°C° 0 mm 1 m/s 670 mmHg 62%
    06:00 +23°C° 0 mm 1 m/s 671 mmHg 60%
    07:00 +23°C° 0 mm 1 m/s 672 mmHg 59%
    08:00 +25°C° 0 mm 2 m/s 672 mmHg 54%
    09:00 +26°C° 0 mm 2 m/s 673 mmHg 49%
    10:00 +28°C° 0 mm 2 m/s 673 mmHg 45%
    11:00 +30°C° 0 mm 2 m/s 673 mmHg 41%
    12:00 +31°C° 0 mm 2 m/s 672 mmHg 37%
    13:00 +32°C° 0 mm 2 m/s 672 mmHg 33%
    14:00 +32°C° 0 mm 1 m/s 672 mmHg 35%
    15:00 +31°C° 0 mm 1 m/s 671 mmHg 37%
    16:00 +31°C° 0 mm 1 m/s 671 mmHg 40%
    17:00 +28°C° 0 mm 1 m/s 671 mmHg 46%
    18:00 +26°C° 0 mm 1 m/s 671 mmHg 51%
    19:00 +23°C° 0 mm 1 m/s 671 mmHg 57%
    20:00 +23°C° 0 mm 1 m/s 671 mmHg 57%
    21:00 +23°C° 0 mm 1 m/s 671 mmHg 57%
    22:00 +23°C° 0 mm 1 m/s 671 mmHg 57%
    23:00 +22°C° 0 mm 1 m/s 671 mmHg 58%

    27 Mai, Sâmbătă

    Timp Temperatura Precipitaţii Vânt Presiune Umiditate
    00:00 +22°C° 0 mm 1 m/s 670 mmHg 59%
    01:00 +20°C° 0 mm 2 m/s 670 mmHg 60%
    02:00 +21°C° 0 mm 1 m/s 670 mmHg 62%
    03:00 +21°C° 0 mm 1 m/s 670 mmHg 63%
    04:00 +20°C° 0 mm 1 m/s 670 mmHg 65%
    05:00 +21°C° 0 mm 1 m/s 670 mmHg 64%
    06:00 +21°C° 0 mm 1 m/s 671 mmHg 63%
    07:00 +22°C° 0 mm 1 m/s 672 mmHg 62%
    08:00 +24°C° 0 mm 2 m/s 672 mmHg 54%
    09:00 +27°C° 0 mm 3 m/s 673 mmHg 46%
    10:00 +30°C° 0 mm 3 m/s 674 mmHg 38%
    11:00 +31°C° 0 mm 3 m/s 673 mmHg 35%
    12:00 +33°C° 0 mm 3 m/s 673 mmHg 32%
    13:00 +34°C° 0 mm 2 m/s 672 mmHg 29%
    14:00 +34°C° 0 mm 2 m/s 672 mmHg 31%
    15:00 +32°C° 0 mm 2 m/s 672 mmHg 33%
    16:00 +32°C° 0 mm 1 m/s 671 mmHg 35%
    17:00 +29°C° 0 mm 1 m/s 671 mmHg 40%
    18:00 +27°C° 0 mm 1 m/s 671 mmHg 45%
    19:00 +24°C° 0 mm 1 m/s 671 mmHg 50%
    20:00 +24°C° 0 mm 1 m/s 671 mmHg 52%
    21:00 +23°C° 0 mm 1 m/s 671 mmHg 53%
    22:00 +23°C° 0 mm 1 m/s 671 mmHg 54%
    23:00 +22°C° 0 mm 1 m/s 671 mmHg 55%

    28 Mai, Duminică

    Timp Temperatura Precipitaţii Vânt Presiune Umiditate
    00:00 +22°C° 0 mm 1 m/s 671 mmHg 55%
    01:00 +22°C° 0 mm 1 m/s 670 mmHg 56%
    02:00 +20°C° 0 mm 2 m/s 670 mmHg 57%
    03:00 +20°C° 0 mm 2 m/s 670 mmHg 58%
    04:00 +19°C° 0 mm 2 m/s 670 mmHg 58%
    05:00 +20°C° 0 mm 2 m/s 671 mmHg 59%
    06:00 +20°C° 0 mm 2 m/s 672 mmHg 59%
    07:00 +20°C° 0 mm 2 m/s 672 mmHg 59%
    08:00 +24°C° 0 mm 2 m/s 673 mmHg 51%
    09:00 +27°C° 0 mm 3 m/s 673 mmHg 43%
    10:00 +30°C° 0 mm 3 m/s 674 mmHg 35%
    11:00 +31°C° 0 mm 3 m/s 673 mmHg 33%
    12:00 +33°C° 0 mm 3 m/s 673 mmHg 30%
    13:00 +34°C° 0 mm 3 m/s 672 mmHg 28%
    14:00 +34°C° 0 mm 2 m/s 672 mmHg 30%
    15:00 +32°C° 0 mm 2 m/s 672 mmHg 32%
    16:00 +32°C° 0 mm 1 m/s 672 mmHg 34%
    17:00 +29°C° 0 mm 1 m/s 671 mmHg 39%
    18:00 +27°C° 0 mm 1 m/s 671 mmHg 44%
    19:00 +24°C° 0 mm 1 m/s 671 mmHg 49%
    20:00 +23°C° 0 mm 1 m/s 671 mmHg 50%
    21:00 +23°C° 0 mm 1 m/s 672 mmHg 51%
    22:00 +22°C° 0 mm 1 m/s 672 mmHg 52%
    23:00 +21°C° 0 mm 2 m/s 672 mmHg 52%
    Arată mai mult